GLOBALSTAR M035 [-]

Last updated on July 6, 2021, 3:36 p.m. UTC

1 25851U 99037A   21186.83594601 -.00000018  00000-0  17348-2 0  9998
2 25851  51.9975  31.4663 0013609 161.8042 289.2690 11.04517244936871
UTC
Height (km)
Latitude
Longitude
Inclination
Orbital Period
UTC large
Height (km)
Speed (km/s)
/
Latitude / Longitude
Inclination (degrees)
Orbital Period (minutes)
Azimuth
Elevation
Range (km)
Doppler Factor
iOS Compass Heading
iOS Angle